[[{"header":{"parameterUnit":"m.s-1","parameterCategory":1,"la1":30.2991,"la2":30.254,"lo1":-89.0895,"lo2":-89.0444,"dy":0.0017,"dx":0.0017,"nx":28,"ny":28,"refTime":"2024-07-30T03:00:00:Z","depth":0,"parameterNumber":2,"parameterNumberName":"U-component_of_WINDS"},"data":[0,0,0,0,0,0,0,0,0,0,0,0,0,0,0,0,0,0,0,0,0,0,0,0,0,0,0,0,0,0,0,0,0,0,0,0,0,0,0,0,0,0,0,0,0,0,0,0,0,0,0,0,0,0,0,0,0,0,2.9043,2.9044,0,2.9131,2.9132,2.9133,2.9067,2.9064,2.9061,2.9059,2.9153,2.9158,2.9163,0,0,0,0,0,0,0,0,0,0,0,0,0,2.8821,2.8826,2.9043,2.9044,2.9045,2.9131,2.9132,2.9133,2.9068,2.9064,2.9061,2.9057,2.9151,2.9157,2.9164,0,0,0,0,0,0,0,0,0,0,0,0,0,2.8914,2.8827,2.9043,2.9023,2.9022,2.9131,2.9132,2.9134,2.9069,2.9064,2.906,2.9056,2.9149,2.9157,2.9164,2.9299,0,0,2.9188,2.9192,0,0,0,0,0,0,0,0,2.8909,2.8923,2.9024,2.9024,2.9023,2.9084,2.9088,2.9189,2.907,2.9051,2.9059,2.9054,2.9134,2.9142,2.9169,2.9304,2.9308,2.9189,2.9194,2.9197,2.9199,0,0,0,0,0,0,0,2.8903,2.8918,2.9078,2.9026,2.9025,2.901,2.9019,2.9107,2.9116,2.9052,2.9048,2.9059,2.9133,2.9161,2.917,2.9309,2.9189,2.9196,2.92,2.9204,2.9559,2.9563,0,0,0,0,0,0,2.8898,2.8913,2.9075,2.908,2.8954,2.9018,2.9027,2.9069,2.9114,2.9117,2.9062,2.9055,2.915,2.9161,2.9173,2.9334,2.9197,2.9204,2.9209,2.9554,2.956,2.9565,0,0,0,0,0,0,2.8893,2.8913,2.9071,2.8996,2.9015,2.9026,2.9073,2.9073,2.9101,2.9122,2.9124,2.909,2.9147,2.9162,2.9268,2.9336,2.9208,2.9215,2.9548,2.9556,2.9562,2.9656,0,0,0,0,0,0,2.8887,2.8911,2.8962,2.8997,2.9019,2.9164,2.9078,2.9078,2.9114,2.9106,2.9148,2.9151,2.9145,2.9257,2.9276,2.9345,2.9221,2.9542,2.9552,2.956,2.9647,2.9666,2.9682,0,0,0,0,0,2.8879,2.8986,2.8965,2.8985,2.9082,2.9168,2.918,2.917,2.912,2.9172,2.9185,2.915,2.9326,2.9268,2.9289,2.9361,2.9538,2.9549,2.9559,2.9639,2.9662,2.9681,0,0,0,0,0,0,2.896,2.899,2.8967,2.9088,2.9126,2.9157,2.9221,2.9194,2.9248,2.9238,2.9224,2.9234,2.9345,2.9364,2.9299,2.9494,2.9424,2.9439,2.9478,2.9499,2.9516,2.951,2.9227,0,0,0,0,0,2.8991,2.9057,2.9081,2.9185,2.9205,2.921,2.9247,2.9235,2.9274,2.929,2.9311,2.9352,2.9416,2.9459,2.9519,2.9649,2.9658,2.9709,2.9727,2.9741,2.9754,2.9825,2.9848,2.96,2.96,2.96,0,0,2.9058,2.9082,2.9125,2.9202,2.9229,2.9299,2.9224,2.9301,2.9352,2.9303,2.9403,2.942,2.9464,2.9583,2.9636,2.9602,2.9824,2.9754,2.9765,2.9771,2.9838,2.9862,2.9882,2.9607,2.9606,2.9605,0,0,2.9214,2.9239,2.9328,2.9358,2.94,2.9403,2.9424,2.9459,2.9468,2.9569,2.9533,2.9594,2.9705,2.9738,2.9769,2.9938,2.9908,2.9958,3.0048,3.0117,3.0137,3.0154,3.0214,3.0236,2.9971,2.9972,2.9972,0,2.9291,2.9393,2.9378,2.9458,2.9493,2.9449,2.954,2.957,2.9631,2.9656,2.9617,2.9754,2.9781,2.9907,2.9948,2.9974,2.9999,2.9953,3.0135,3.0152,3.0168,3.0225,3.0248,2.9977,2.9977,2.9976,2.9976,0,2.9487,2.9558,2.9625,2.9684,2.9726,2.9811,2.981,2.9855,2.984,2.9847,2.995,2.998,3.0046,3.0075,3.0061,3.0199,3.0176,3.0136,3.0066,3.0197,3.0251,3.0273,2.9986,2.9984,2.9982,2.998,0,0,2.9697,2.9744,2.977,2.9795,2.9839,2.9894,2.9978,3.004,3.0079,3.0123,3.0193,3.0287,3.025,3.0286,3.0276,3.0336,3.0468,3.0288,3.0289,3.0321,3.0621,3.0651,3.0677,3.0448,3.0452,3.0455,3.0617,0,2.9855,2.9998,2.9987,3.0123,3.0189,3.0149,3.0221,3.0256,3.0265,3.0323,3.0333,3.0401,3.0347,3.0368,3.0426,3.0439,3.0528,3.0427,3.0514,3.0517,3.0504,3.0705,3.0737,3.0889,3.0638,3.0642,3.0644,0,3.0059,3.0108,3.025,3.0283,3.0311,3.0376,3.0432,3.0488,3.0527,3.053,3.0569,3.0549,3.0634,3.0561,3.0678,3.061,3.0645,3.0657,3.0662,3.067,3.0589,3.0718,3.0937,3.096,3.0677,3.0675,3.0672,0,3.0198,3.03,3.0398,3.0421,3.0462,3.0509,3.0529,3.0563,3.0602,3.0651,3.0676,3.0736,3.0769,3.0816,3.0813,3.076,3.0932,3.0859,3.0937,3.0937,3.0975,3.0973,3.1202,3.0997,3.0997,3.0997,3.0996,0,3.0376,3.0465,3.046,3.0521,3.0619,3.0606,3.0704,3.0718,3.075,3.0813,3.0782,3.0842,3.0834,3.0895,3.0893,3.099,3.1006,3.101,3.1009,3.1013,3.1013,3.1036,3.1025,3.1003,3.1001,3.1,3.0999,0,3.0549,3.0549,3.0653,3.0683,3.0693,3.0764,3.079,3.0848,3.0853,3.0934,3.0952,3.0962,3.1032,3.1033,3.1113,3.1112,3.1231,3.1218,3.1218,3.1215,3.1293,3.1286,3.1546,3.1579,3.1352,3.1355,3.1356,0,3.0662,3.0729,3.0766,3.0805,3.0827,3.0892,3.093,3.092,3.0961,3.1011,3.1063,3.1129,3.1182,3.1296,3.1311,3.1373,3.1361,3.1447,3.137,3.1372,3.1362,3.1358,3.1365,3.1463,3.1465,3.1467,3.1469,0,3.0865,3.0861,3.0917,3.0973,3.102,3.1064,3.1105,3.1139,3.1133,3.1182,3.1252,3.1293,3.1374,3.1441,3.1501,3.1522,3.1496,3.1493,3.1515,3.152,3.1517,3.152,3.1259,3.1488,3.1486,3.1484,3.1483,3.1483,3.1011,3.1069,3.1103,3.1167,3.1196,3.1234,3.129,3.1302,3.136,3.1424,3.1415,3.1494,3.1531,3.1608,3.1634,3.1696,3.1666,3.1697,3.1705,3.1713,3.1721,3.1507,3.1707,3.1707,3.1706,3.1706,3.1705,0,3.1212,3.1232,3.129,3.1347,3.1397,3.1366,3.1409,3.1454,3.1523,3.1559,3.1611,3.1692,3.1757,3.1777,3.1839,3.1885,3.1875,3.1902,3.1899,3.1904,3.1745,3.172,3.191,3.191,3.191,3.191,3.191,3.191,3.1322,3.1418,3.1418,3.1528,3.1548,3.1623,3.1651,3.1687,3.1716,3.1807,3.186,3.1871,3.1902,3.1966,3.2024,3.2029,3.2053,3.2086,3.2086,3.1936,3.1916,3.1896,3.1873,3.2092,3.2092,3.224,3.2241,3.2242]},{"header":{"parameterUnit":"m.s-1","parameterCategory":1,"la1":30.2991,"la2":30.254,"lo1":-89.0895,"lo2":-89.0444,"dy":0.0017,"dx":0.0017,"nx":28,"ny":28,"refTime":"2024-07-30T03:00:00:Z","depth":0,"parameterNumber":3,"parameterNumberName":"V-component_of_WINDS"},"data":[0,0,0,0,0,0,0,0,0,0,0,0,0,0,0,0,0,0,0,0,0,0,0,0,0,0,0,0,0,0,0,0,0,0,0,0,0,0,0,0,0,0,0,0,0,0,0,0,0,0,0,0,0,0,0,0,0,0,-0.8854,-0.8855,0,-0.8903,-0.8904,-0.8904,-0.8905,-0.8905,-0.8904,-0.8904,-0.8954,-0.8956,-0.8957,0,0,0,0,0,0,0,0,0,0,0,0,0,-0.8763,-0.8764,-0.8854,-0.8855,-0.8856,-0.8903,-0.8904,-0.8904,-0.8905,-0.8905,-0.8904,-0.8903,-0.8953,-0.8955,-0.8958,0,0,0,0,0,0,0,0,0,0,0,0,0,-0.8806,-0.8765,-0.8854,-0.8862,-0.8863,-0.8903,-0.8904,-0.8905,-0.8906,-0.8905,-0.8904,-0.8903,-0.8952,-0.8955,-0.8958,-0.8994,0,0,-0.8967,-0.8968,0,0,0,0,0,0,0,0,-0.8804,-0.8809,-0.886,-0.8861,-0.8863,-0.8897,-0.889,-0.8935,-0.8906,-0.8889,-0.8904,-0.8902,-0.8936,-0.894,-0.8951,-0.8996,-0.8998,-0.8967,-0.8969,-0.897,-0.8971,0,0,0,0,0,0,0,-0.8801,-0.8807,-0.8874,-0.8861,-0.8862,-0.8863,-0.8868,-0.8898,-0.8917,-0.8891,-0.8891,-0.8897,-0.8936,-0.8948,-0.8952,-0.8999,-0.8967,-0.8969,-0.8971,-0.8972,-0.9076,-0.9077,0,0,0,0,0,0,-0.8796,-0.8805,-0.8872,-0.8875,-0.883,-0.8865,-0.8871,-0.8887,-0.8917,-0.892,-0.8897,-0.8897,-0.8944,-0.8949,-0.8954,-0.8998,-0.897,-0.8973,-0.8974,-0.9075,-0.9077,-0.9078,0,0,0,0,0,0,-0.8794,-0.8802,-0.887,-0.884,-0.8849,-0.8868,-0.8886,-0.8889,-0.8901,-0.8922,-0.8925,-0.8906,-0.8943,-0.895,-0.8984,-0.9,-0.8974,-0.8976,-0.9074,-0.9076,-0.9077,-0.9086,0,0,0,0,0,0,-0.8791,-0.8801,-0.8815,-0.884,-0.885,-0.8899,-0.8887,-0.889,-0.8905,-0.8905,-0.8931,-0.8934,-0.8943,-0.898,-0.8987,-0.9003,-0.8979,-0.9073,-0.9075,-0.9077,-0.9085,-0.9088,-0.9091,0,0,0,0,0,-0.8788,-0.8816,-0.8816,-0.8824,-0.8868,-0.89,-0.8906,-0.8915,-0.8907,-0.8921,-0.8934,-0.8934,-0.8997,-0.8983,-0.8991,-0.9009,-0.9072,-0.9074,-0.9076,-0.9083,-0.9087,-0.9091,0,0,0,0,0,0,-0.8792,-0.8819,-0.8819,-0.8856,-0.8876,-0.89,-0.8918,-0.8919,-0.8942,-0.894,-0.8951,-0.8957,-0.8991,-0.9003,-0.8987,-0.9045,-0.9033,-0.9037,-0.9036,-0.904,-0.9043,-0.9039,-0.8981,0,0,0,0,0,-0.8797,-0.882,-0.8843,-0.8873,-0.8883,-0.8899,-0.8913,-0.8919,-0.894,-0.8948,-0.8964,-0.8985,-0.9009,-0.9025,-0.9049,-0.9087,-0.9092,-0.9103,-0.9106,-0.9108,-0.9112,-0.9133,-0.9137,-0.9085,-0.9085,-0.9085,0,0,-0.8807,-0.8825,-0.8839,-0.8874,-0.889,-0.8915,-0.8906,-0.8932,-0.8951,-0.8952,-0.8985,-0.8998,-0.9021,-0.9057,-0.9074,-0.9069,-0.9127,-0.9111,-0.9113,-0.9115,-0.9136,-0.914,-0.9145,-0.9087,-0.9087,-0.9087,0,0,-0.8839,-0.8855,-0.8882,-0.8898,-0.8922,-0.8933,-0.8939,-0.8964,-0.8972,-0.9005,-0.9007,-0.9029,-0.9071,-0.9088,-0.9102,-0.9141,-0.9141,-0.9148,-0.9164,-0.9185,-0.9189,-0.9193,-0.9207,-0.9211,-0.9152,-0.9152,-0.9152,0,-0.8849,-0.8886,-0.8895,-0.8922,-0.8937,-0.894,-0.8967,-0.8983,-0.9013,-0.9024,-0.9018,-0.9071,-0.9087,-0.9127,-0.9136,-0.9147,-0.9155,-0.9145,-0.9188,-0.9191,-0.9195,-0.9208,-0.9214,-0.9152,-0.9152,-0.9152,-0.9152,0,-0.8897,-0.8923,-0.8942,-0.8972,-0.8989,-0.9016,-0.9029,-0.9046,-0.905,-0.9061,-0.9095,-0.9115,-0.9143,-0.9153,-0.9157,-0.9193,-0.9189,-0.9185,-0.9174,-0.92,-0.9213,-0.9219,-0.9153,-0.9153,-0.9153,-0.9153,0,0,-0.8933,-0.8967,-0.8974,-0.8988,-0.9015,-0.9035,-0.9062,-0.9089,-0.9103,-0.9125,-0.9148,-0.9183,-0.918,-0.9196,-0.9202,-0.922,-0.9249,-0.9213,-0.9214,-0.9219,-0.9291,-0.9294,-0.93,-0.925,-0.9251,-0.9251,-0.9289,0,-0.8968,-0.9016,-0.9025,-0.9067,-0.9091,-0.9094,-0.9117,-0.9136,-0.9148,-0.917,-0.9182,-0.9207,-0.92,-0.921,-0.9228,-0.9242,-0.9264,-0.9239,-0.9271,-0.9272,-0.9266,-0.9307,-0.931,-0.9345,-0.9294,-0.9295,-0.9296,0,-0.9015,-0.9037,-0.9081,-0.9105,-0.9116,-0.9137,-0.9163,-0.9184,-0.9206,-0.9213,-0.923,-0.9235,-0.9263,-0.925,-0.929,-0.9273,-0.9287,-0.9296,-0.9297,-0.9301,-0.9286,-0.9312,-0.9356,-0.9362,-0.9304,-0.9303,-0.9303,0,-0.9037,-0.9078,-0.9109,-0.9121,-0.915,-0.9165,-0.9177,-0.9198,-0.9214,-0.9237,-0.9247,-0.9273,-0.9287,-0.9307,-0.9318,-0.9308,-0.9357,-0.9345,-0.9364,-0.9364,-0.9374,-0.9373,-0.9422,-0.9383,-0.9383,-0.9383,-0.9383,0,-0.9075,-0.9102,-0.912,-0.9139,-0.9169,-0.918,-0.921,-0.9222,-0.9241,-0.9263,-0.9268,-0.9288,-0.9302,-0.9325,-0.9334,-0.9365,-0.9372,-0.9378,-0.938,-0.9378,-0.9377,-0.9387,-0.9385,-0.9384,-0.9384,-0.9383,-0.9383,0,-0.9104,-0.9117,-0.9152,-0.9176,-0.9183,-0.9204,-0.9226,-0.9245,-0.9256,-0.9284,-0.9291,-0.9309,-0.9336,-0.9349,-0.9383,-0.9389,-0.9425,-0.9426,-0.9418,-0.9418,-0.9437,-0.9435,-0.9494,-0.9502,-0.9457,-0.9457,-0.9458,0,-0.9128,-0.9149,-0.9175,-0.919,-0.9203,-0.9228,-0.9244,-0.9255,-0.9272,-0.9298,-0.9315,-0.9342,-0.9364,-0.9408,-0.9424,-0.945,-0.9451,-0.947,-0.9455,-0.9452,-0.9452,-0.945,-0.9453,-0.9472,-0.9473,-0.9473,-0.9473,0,-0.9168,-0.9174,-0.9197,-0.9222,-0.9241,-0.9262,-0.9282,-0.9294,-0.9309,-0.9328,-0.9355,-0.9373,-0.9407,-0.9434,-0.9462,-0.9475,-0.9477,-0.9478,-0.9484,-0.9482,-0.9476,-0.948,-0.9425,-0.9477,-0.9476,-0.9476,-0.9476,-0.9476,-0.9196,-0.9215,-0.9236,-0.9262,-0.9278,-0.9297,-0.9316,-0.933,-0.9353,-0.9382,-0.9387,-0.9417,-0.9439,-0.9475,-0.949,-0.9513,-0.9509,-0.9517,-0.9519,-0.9521,-0.9523,-0.9472,-0.9518,-0.9518,-0.9518,-0.9518,-0.9518,0,-0.9237,-0.9251,-0.9274,-0.9303,-0.9323,-0.9323,-0.9345,-0.9362,-0.9388,-0.9408,-0.943,-0.9462,-0.9489,-0.9507,-0.9534,-0.9549,-0.9551,-0.9556,-0.9555,-0.9558,-0.9525,-0.9517,-0.9554,-0.9554,-0.9554,-0.9554,-0.9554,-0.9554,-0.9261,-0.9292,-0.93,-0.934,-0.9354,-0.9383,-0.9396,-0.9414,-0.943,-0.9465,-0.9487,-0.9499,-0.9518,-0.9547,-0.9571,-0.9576,-0.9586,-0.9591,-0.9596,-0.9564,-0.956,-0.9557,-0.955,-0.9593,-0.9593,-0.9627,-0.9628,-0.9628]}]]